Regional Weather Roundup
Issued by NWS

Home | Current Version | Previous Version | Text Only | Print | Product List | Glossary On
Versions: 1 2 3 4 5 6 7 8 9 10 11 12 13 14 15 16 17 18 19 20 21 22 23 24 25 26 27 28 29 30 31 32 33 34 35 36 37 38 39 40 41 42 43 44 45 46 47 48 49 50
000
ASUS45 KBOI 202310
RWRID

IDAHO REGIONAL WEATHER ROUNDUP
NATIONAL WEATHER SERVICE BOISE ID
500 PM MDT FRI OCT 20 2017

NOTE: "FAIR" INDICATES FEW OR NO CLOUDS BELOW 12000 FEET
WITH NO SIGNIFICANT WEATHER AND/OR OBSTRUCTIONS TO VISIBILITY

IDZ012-014-210000-
SOUTHWEST IDAHO


CITY           SKY/WX    TMP DP  RH WIND       PRES   REMARKS
BOISE          MOSUNNY   51  30  44 W12       29.85R
CALDWELL       CLOUDY    57  28  33 SW14G26   29.85R
MOUNTAIN HOME  MOSUNNY   54  28  36 NW20      29.86R
$$

IDZ016-017-210000-
SOUTHCENTRAL IDAHO


CITY           SKY/WX    TMP DP  RH WIND       PRES   REMARKS
BURLEY         LGT RAIN  45  32  60 W21G30    29.86R
JEROME         PTSUNNY   46  35  65 SW17G23   29.87R
TWIN FALLS     PTSUNNY   41  33  73 SW18G29   29.88R
$$

IDZ019>023-210000-
SOUTHEAST IDAHO


CITY           SKY/WX    TMP DP  RH WIND       PRES   REMARKS
IDAHO FALLS    PTSUNNY   45  28  51 SW21G32   29.76R
POCATELLO      MOSUNNY   44  31  60 SW35G44   29.82R
REXBURG        CLOUDY    41  30  65 NW14G35   29.76R
$$

IDZ006-010-011-018-031-032-210000-
CENTRAL IDAHO MOUNTAINS


CITY           SKY/WX    TMP DP  RH WIND       PRES   REMARKS
MCCALL         CLOUDY    38  31  76 S3        29.79R
HAILEY         MOSUNNY   45  21  39 NW14G21   29.79R
STANLEY          N/A     34  27  75 N6        29.80R WCI  29
SALMON         PTSUNNY   46  29  51 NE6       29.74R
CHALLIS        PTSUNNY   46  23  40 NW21G30   29.74R
$$

IDZ002-004-006-007-026-210000-
NORTHERN IDAHO


CITY           SKY/WX    TMP DP  RH WIND       PRES   REMARKS
LEWISTON       MOSUNNY   56  35  45 W12       29.77R
LOWELL           N/A     42  41  96 VRB3      29.82R
COEUR D`ALENE  CLOUDY    48  39  71 S9        29.70R
MULLAN PASS    SNOW      29  27  92 VRB5      29.66R VSB<1/4 WCI  24
$$



USA.gov is the U.S. government's official web portal to all federal, state and local government web resources and services.